Back to Top

Language: 

My Weather Underground Personal Weather Station Historical Data with Graphs...

Delerius Weather Station Historical Data
Daily Summary for February 27, 2017 Units:  Metric    English   Both
« Previous Day
Next Day »
Daily Weekly Monthly Yearly Custom
  High: Low: Average:
Temperature: 6.9 °C 0.8 °C 4.9 °C
Dew Point: 5.4 °C -0.2 °C 3.5 °C
Humidity: 94 % 84 % 91 %
Wind Speed: 19.3 km/h 0 km/h 9.2 km/h
Wind Gust: 32.2 km/h - -
Wind:- - SW
Pressure: 994.8 hPa 979.6 hPa -
Precipitation: 2.29 mm    
Historical Graphs
 
 
Tabular Data for February 27, 2017
Time Temperature Dew Point Pressure Wind Wind Speed Wind Gust Humidity Rainfall Rate (Hourly) solar Conditions
00:00 6.1 °C 4.3 °C 994.8 hPa WSW 6.4 km/h 6.4 km/h 88 % 0 mm 0 W/m2
00:05 6 °C 4.2 °C 994.5 hPa WSW 3.2 km/h 6.4 km/h 88 % 0 mm 0 W/m2
00:15 5.8 °C 4 °C 994.5 hPa SW 1.6 km/h 3.2 km/h 88 % 0 mm 0 W/m2
00:20 5.9 °C 4.2 °C 994.5 hPa SW 4.8 km/h 4.8 km/h 89 % 0 mm 0 W/m2
00:25 5.9 °C 4.3 °C 994.5 hPa SW 8 km/h 8 km/h 89 % 0 mm 0 W/m2
00:30 6.1 °C 4.6 °C 994.1 hPa SW 11.3 km/h 11.3 km/h 90 % 0 mm 0 W/m2
00:35 6.3 °C 4.6 °C 994.1 hPa SW 12.9 km/h 12.9 km/h 89 % 0 mm 0 W/m2
00:45 6.5 °C 4.5 °C 994.1 hPa SW 14.5 km/h 17.7 km/h 87 % 0 mm 0 W/m2
00:50 6.6 °C 4.6 °C 994.1 hPa WSW 12.9 km/h 22.5 km/h 87 % 0 mm 0 W/m2
00:55 6.7 °C 4.5 °C 993.8 hPa SSW 14.5 km/h 22.5 km/h 86 % 0 mm 0 W/m2
01:00 6.7 °C 4.5 °C 994.1 hPa SSW 14.5 km/h 16.1 km/h 86 % 0 mm 0 W/m2
01:05 6.7 °C 4.6 °C 994.1 hPa SW 12.9 km/h 19.3 km/h 86 % 0 mm 0 W/m2
01:10 6.7 °C 4.5 °C 994.1 hPa SW 12.9 km/h 12.9 km/h 86 % 0 mm 0 W/m2
01:20 6.7 °C 4.5 °C 994.1 hPa SW 11.3 km/h 11.3 km/h 86 % 0 mm 0 W/m2
01:25 6.6 °C 4.4 °C 993.8 hPa SW 11.3 km/h 19.3 km/h 86 % 0 mm 0 W/m2
01:30 6.7 °C 4.3 °C 993.8 hPa SW 11.3 km/h 19.3 km/h 85 % 0 mm 0 W/m2
01:35 6.7 °C 4.4 °C 993.8 hPa SW 12.9 km/h 19.3 km/h 85 % 0 mm 0 W/m2
01:45 6.7 °C 4.4 °C 993.8 hPa SSW 16.1 km/h 19.3 km/h 85 % 0 mm 0 W/m2
01:55 6.7 °C 4.2 °C 993.5 hPa SSW 16.1 km/h 19.3 km/h 84 % 0 mm 0 W/m2
02:00 6.7 °C 4.4 °C 993.5 hPa SSW 16.1 km/h 16.1 km/h 85 % 0 mm 0 W/m2
02:05 6.7 °C 4.4 °C 993.5 hPa SW 16.1 km/h 17.7 km/h 85 % 0 mm 0 W/m2
02:10 6.7 °C 4.4 °C 993.5 hPa SW 14.5 km/h 14.5 km/h 85 % 0 mm 0 W/m2
02:15 6.7 °C 4.3 °C 993.1 hPa SSW 12.9 km/h 19.3 km/h 85 % 0 mm 0 W/m2
02:25 6.6 °C 4.4 °C 993.1 hPa SW 9.7 km/h 11.3 km/h 86 % 0 mm 0 W/m2
02:30 6.6 °C 4.4 °C 993.1 hPa South 11.3 km/h 19.3 km/h 86 % 0 mm 0 W/m2
02:35 6.6 °C 4.4 °C 993.1 hPa South 9.7 km/h 19.3 km/h 86 % 0 mm 0 W/m2
02:40 6.6 °C 4.4 °C 993.1 hPa SSW 9.7 km/h 9.7 km/h 86 % 0 mm 0 W/m2
02:45 6.6 °C 4.4 °C 992.8 hPa South 11.3 km/h 14.5 km/h 86 % 0 mm 0 W/m2
02:50 6.6 °C 4.6 °C 992.8 hPa SSW 11.3 km/h 11.3 km/h 87 % 0 mm 0 W/m2
03:00 6.6 °C 4.6 °C 992.4 hPa South 11.3 km/h 11.3 km/h 87 % 0 mm 0 W/m2
03:05 6.6 °C 4.6 °C 992.4 hPa SSE 11.3 km/h 19.3 km/h 87 % 0 mm 0 W/m2
03:15 6.7 °C 4.7 °C 992.4 hPa SSW 12.9 km/h 19.3 km/h 87 % 0 mm 0 W/m2
03:20 6.7 °C 4.8 °C 992.1 hPa South 11.3 km/h 11.3 km/h 88 % 0 mm 0 W/m2
03:25 6.6 °C 4.8 °C 992.1 hPa SSW 11.3 km/h 19.3 km/h 88 % 0 mm 0 W/m2
03:30 6.5 °C 4.8 °C 992.1 hPa South 8 km/h 8 km/h 89 % 0 mm 0 W/m2
03:35 6.4 °C 4.8 °C 991.8 hPa South 6.4 km/h 12.9 km/h 89 % 0 mm 0 W/m2
03:40 6.4 °C 4.9 °C 991.8 hPa South 9.7 km/h 19.3 km/h 90 % 0 mm 0 W/m2
03:45 6.4 °C 4.9 °C 991.8 hPa South 11.3 km/h 19.3 km/h 90 % 0 mm 0 W/m2
03:50 6.4 °C 4.9 °C 991.8 hPa South 12.9 km/h 12.9 km/h 90 % 0 mm 0 W/m2
03:55 6.4 °C 4.9 °C 991.8 hPa South 12.9 km/h 19.3 km/h 90 % 0 mm 0 W/m2
04:05 6.3 °C 4.9 °C 991.4 hPa SW 12.9 km/h 19.3 km/h 91 % 0 mm 0 W/m2
04:10 6.2 °C 4.9 °C 991.4 hPa SSW 11.3 km/h 11.3 km/h 91 % 0 mm 0 W/m2
04:15 6.2 °C 4.8 °C 991.4 hPa SW 9.7 km/h 19.3 km/h 91 % 0 mm 0 W/m2
04:20 6.1 °C 4.9 °C 991.1 hPa SSW 8 km/h 19.3 km/h 92 % 0 mm 0 W/m2
04:30 6.1 °C 4.8 °C 991.1 hPa South 11.3 km/h 19.3 km/h 92 % 0 mm 0 W/m2
04:40 6.1 °C 4.9 °C 990.7 hPa SSW 11.3 km/h 11.3 km/h 92 % 0 mm 0 W/m2
04:45 6.1 °C 4.8 °C 990.4 hPa SSE 9.7 km/h 17.7 km/h 92 % 0 mm 0 W/m2
04:50 6.1 °C 4.9 °C 990.4 hPa SSE 11.3 km/h 19.3 km/h 92 % 0 mm 0 W/m2
04:55 6.1 °C 5.1 °C 990.4 hPa SSW 12.9 km/h 19.3 km/h 93 % 0 mm 0 W/m2
05:00 6.2 °C 5.1 °C 990.4 hPa South 12.9 km/h 19.3 km/h 93 % 0 mm 0 W/m2
05:05 6.2 °C 5.1 °C 990.4 hPa SSW 14.5 km/h 19.3 km/h 93 % 0 mm 0 W/m2
05:15 6.2 °C 4.9 °C 990.4 hPa SSW 14.5 km/h 19.3 km/h 92 % 0 mm 0 W/m2
05:20 6.1 °C 4.9 °C 990.1 hPa SSW 12.9 km/h 12.9 km/h 92 % 1.78 mm 0 W/m2
05:25 6.1 °C 4.9 °C 990.1 hPa SSW 12.9 km/h 19.3 km/h 92 % 1.78 mm 0 W/m2
05:30 6.1 °C 4.9 °C 990.1 hPa SSW 14.5 km/h 14.5 km/h 92 % 1.27 mm 0 W/m2
05:35 6.1 °C 5.1 °C 990.1 hPa South 14.5 km/h 19.3 km/h 93 % 1.02 mm 0 W/m2
05:45 6.1 °C 4.8 °C 989.7 hPa South 14.5 km/h 14.5 km/h 92 % 0 mm 0 W/m2
05:55 6.1 °C 4.7 °C 989.7 hPa SSW 14.5 km/h 25.7 km/h 91 % 0 mm 0 W/m2
06:00 6 °C 4.7 °C 989.4 hPa SSW 12.9 km/h 12.9 km/h 91 % 0 mm 0 W/m2
06:05 5.9 °C 4.6 °C 989.4 hPa SW 12.9 km/h 17.7 km/h 91 % 0 mm 0 W/m2
06:10 5.9 °C 4.6 °C 989.4 hPa WSW 12.9 km/h 12.9 km/h 91 % 0 mm 0 W/m2
06:20 5.8 °C 4.5 °C 989.1 hPa SSE 9.7 km/h 19.3 km/h 91 % 0 mm 0 W/m2
06:25 5.8 °C 4.4 °C 989.1 hPa South 6.4 km/h 19.3 km/h 91 % 0 mm 0 W/m2
06:30 5.7 °C 4.4 °C 989.1 hPa South 8 km/h 8 km/h 91 % 0 mm 0 W/m2
06:35 5.7 °C 4.3 °C 989.1 hPa SSW 9.7 km/h 11.3 km/h 91 % 0 mm 0 W/m2
06:40 5.6 °C 4.2 °C 988.7 hPa South 9.7 km/h 19.3 km/h 91 % 0 mm 0 W/m2
06:45 5.5 °C 4.2 °C 988.7 hPa SSE 9.7 km/h 19.3 km/h 91 % 0 mm 0 W/m2
06:55 5.4 °C 4.1 °C 988.7 hPa SSE 9.7 km/h 19.3 km/h 91 % 0 mm 0 W/m2
07:00 5.3 °C 4 °C 988.4 hPa SSE 9.7 km/h 19.3 km/h 91 % 0 mm 0 W/m2
07:05 5.3 °C 4.1 °C 988.4 hPa SSW 9.7 km/h 19.3 km/h 92 % 0 mm 5 W/m2
07:15 5.3 °C 4.1 °C 988 hPa SSE 9.7 km/h 19.3 km/h 92 % 0 mm 11 W/m2
07:20 5.4 °C 4.2 °C 988 hPa South 11.3 km/h 11.3 km/h 92 % 0 mm 16 W/m2
07:30 5.5 °C 4.3 °C 988 hPa SSW 11.3 km/h 19.3 km/h 92 % 0 mm 54 W/m2
07:35 5.6 °C 4.4 °C 988 hPa SSW 11.3 km/h 19.3 km/h 92 % 0 mm 35 W/m2
07:40 5.7 °C 4.3 °C 988 hPa SW 12.9 km/h 19.3 km/h 91 % 0 mm 32 W/m2
07:45 5.7 °C 4.3 °C 987.7 hPa SW 11.3 km/h 19.3 km/h 91 % 0 mm 42 W/m2
07:50 5.7 °C 4.2 °C 987.7 hPa SSW 8 km/h 19.3 km/h 90 % 0 mm 54 W/m2
08:00 5.8 °C 4.3 °C 987.7 hPa SW 6.4 km/h 19.3 km/h 90 % 0 mm 88 W/m2
08:05 5.8 °C 4.3 °C 987.7 hPa SW 6.4 km/h 19.3 km/h 90 % 0 mm 65 W/m2
08:10 5.9 °C 4.4 °C 987.4 hPa SW 6.4 km/h 6.4 km/h 90 % 0 mm 84 W/m2
08:15 6 °C 4.5 °C 987.4 hPa West 6.4 km/h 8 km/h 90 % 0 mm 148 W/m2
08:25 6.3 °C 4.8 °C 987.4 hPa SSW 6.4 km/h 19.3 km/h 90 % 0 mm 151 W/m2
08:35 6.4 °C 4.7 °C 987 hPa SSW 9.7 km/h 9.7 km/h 89 % 0 mm 69 W/m2
08:40 6.4 °C 4.7 °C 987 hPa SW 9.7 km/h 19.3 km/h 89 % 0 mm 49 W/m2
08:45 6.3 °C 4.5 °C 987 hPa SSW 9.7 km/h 19.3 km/h 88 % 0 mm 47 W/m2
08:50 6.3 °C 4.4 °C 987 hPa SW 8 km/h 19.3 km/h 88 % 0 mm 42 W/m2
08:55 6.3 °C 4.6 °C 987 hPa SW 6.4 km/h 19.3 km/h 89 % 0 mm 37 W/m2
09:00 6.3 °C 4.4 °C 987 hPa SSW 6.4 km/h 19.3 km/h 88 % 0 mm 25 W/m2
09:10 6.2 °C 4.4 °C 986.7 hPa South 8 km/h 19.3 km/h 88 % 0 mm 37 W/m2
09:15 6.2 °C 4.3 °C 986.7 hPa South 12.9 km/h 19.3 km/h 88 % 0 mm 37 W/m2
09:20 6.1 °C 4.3 °C 986.7 hPa SW 12.9 km/h 12.9 km/h 88 % 0 mm 32 W/m2
09:25 6.1 °C 4.2 °C 986.7 hPa SSW 12.9 km/h 22.5 km/h 88 % 0 mm 35 W/m2
09:30 5.9 °C 4.3 °C 986.3 hPa South 12.9 km/h 19.3 km/h 89 % 0 mm 39 W/m2
09:40 5.7 °C 4.1 °C 986.3 hPa SW 12.9 km/h 19.3 km/h 89 % 0 mm 42 W/m2
09:45 5.7 °C 4.2 °C 986.3 hPa SW 12.9 km/h 19.3 km/h 90 % 0 mm 58 W/m2
09:50 5.6 °C 4.1 °C 986.3 hPa SW 11.3 km/h 19.3 km/h 90 % 0 mm 70 W/m2
09:55 5.5 °C 4 °C 986.3 hPa SSW 12.9 km/h 19.3 km/h 90 % 0 mm 84 W/m2
10:00 5.5 °C 4.2 °C 986.3 hPa SSW 11.3 km/h 11.3 km/h 91 % 0 mm 69 W/m2
10:05 5.4 °C 4.1 °C 986 hPa SW 11.3 km/h 19.3 km/h 91 % 0 mm 98 W/m2
10:15 5.5 °C 4.3 °C 985.7 hPa SW 6.4 km/h 19.3 km/h 92 % 0 mm 118 W/m2
10:20 5.5 °C 4.3 °C 985.7 hPa SSW 3.2 km/h 19.3 km/h 92 % 0 mm 79 W/m2
10:25 5.5 °C 4.3 °C 985.3 hPa SSW 4.8 km/h 19.3 km/h 92 % 0 mm 137 W/m2
10:35 5.5 °C 4.3 °C 985 hPa South 4.8 km/h 19.3 km/h 92 % 0 mm 142 W/m2
10:40 5.5 °C 4.3 °C 985 hPa SSW 4.8 km/h 19.3 km/h 92 % 0 mm 190 W/m2
10:50 5.6 °C 4.3 °C 984.6 hPa South 8 km/h 19.3 km/h 92 % 0 mm 181 W/m2
10:55 5.7 °C 4.4 °C 985 hPa SSW 8 km/h 19.3 km/h 92 % 0 mm 98 W/m2
11:00 5.7 °C 4.4 °C 984.6 hPa SSW 6.4 km/h 6.4 km/h 91 % 0 mm 139 W/m2
11:05 5.7 °C 4.3 °C 984.6 hPa SSW 3.2 km/h 19.3 km/h 91 % 0 mm 127 W/m2
11:10 5.7 °C 4.4 °C 984.6 hPa SSW 4.8 km/h 4.8 km/h 91 % 0 mm 114 W/m2
11:20 5.8 °C 4.5 °C 984.3 hPa South 3.2 km/h 19.3 km/h 91 % 0 mm 56 W/m2
11:25 5.8 °C 4.3 °C 984.3 hPa South 4.8 km/h 19.3 km/h 90 % 0 mm 90 W/m2
11:30 5.8 °C 4.3 °C 984.3 hPa South 3.2 km/h 19.3 km/h 90 % 0 mm 128 W/m2
11:35 5.9 °C 4.4 °C 984 hPa SSE 3.2 km/h 19.3 km/h 90 % 0 mm 118 W/m2
11:40 5.9 °C 4.4 °C 984 hPa SSE 6.4 km/h 6.4 km/h 90 % 0 mm 132 W/m2
11:50 6 °C 4.5 °C 983.6 hPa SW 4.8 km/h 19.3 km/h 90 % 0 mm 139 W/m2
11:55 6 °C 4.3 °C 983.6 hPa SW 4.8 km/h 19.3 km/h 89 % 0 mm 139 W/m2
12:05 6.2 °C 4.7 °C 983.3 hPa SSE 4.8 km/h 19.3 km/h 90 % 0 mm 70 W/m2
12:10 6.1 °C 4.4 °C 983 hPa South 4.8 km/h 19.3 km/h 89 % 0 mm 44 W/m2
12:15 6 °C 4.2 °C 983 hPa South 6.4 km/h 19.3 km/h 88 % 0 mm 56 W/m2
12:20 6 °C 4.3 °C 983 hPa South 4.8 km/h 19.3 km/h 89 % 0 mm 47 W/m2
12:30 5.9 °C 4.4 °C 982.6 hPa SSW 6.4 km/h 19.3 km/h 90 % 0 mm 72 W/m2
12:35 5.9 °C 4.4 °C 982.3 hPa SSE 6.4 km/h 19.3 km/h 90 % 0 mm 105 W/m2
12:40 5.9 °C 4.6 °C 982.3 hPa SSE 6.4 km/h 19.3 km/h 91 % 0 mm 93 W/m2
12:45 5.8 °C 4.5 °C 982.3 hPa SSE 8 km/h 19.3 km/h 91 % 0 mm 72 W/m2
12:50 5.7 °C 4.4 °C 982.3 hPa SSW 9.7 km/h 19.3 km/h 91 % 0 mm 70 W/m2
13:00 5.6 °C 4.3 °C 981.9 hPa SSE 9.7 km/h 9.7 km/h 91 % 0 mm 76 W/m2
13:05 5.6 °C 4.4 °C 981.9 hPa SSE 9.7 km/h 19.3 km/h 92 % 0 mm 220 W/m2
13:15 5.7 °C 4.5 °C 981.6 hPa South 6.4 km/h 19.3 km/h 92 % 0 mm 223 W/m2
13:20 5.7 °C 4.5 °C 981.3 hPa SSE 6.4 km/h 19.3 km/h 92 % 0 mm 225 W/m2
13:25 5.8 °C 4.4 °C 981.3 hPa SSE 6.4 km/h 19.3 km/h 91 % 0 mm 207 W/m2
13:35 5.9 °C 4.4 °C 981.3 hPa SSW 6.4 km/h 19.3 km/h 90 % 0 mm 258 W/m2
13:40 6 °C 4.5 °C 980.9 hPa South 6.4 km/h 19.3 km/h 90 % 0 mm 345 W/m2
13:45 6.2 °C 4.7 °C 980.9 hPa South 6.4 km/h 19.3 km/h 90 % 0 mm 508 W/m2
13:50 6.5 °C 5.1 °C 980.6 hPa South 4.8 km/h 19.3 km/h 91 % 0 mm 441 W/m2
13:55 6.8 °C 5.3 °C 980.6 hPa SE 4.8 km/h 19.3 km/h 90 % 0 mm 218 W/m2
14:00 6.9 °C 5.4 °C 980.9 hPa South 3.2 km/h 19.3 km/h 90 % 0 mm 214 W/m2
14:10 6.8 °C 5.1 °C 980.6 hPa SSW 4.8 km/h 19.3 km/h 89 % 0 mm 158 W/m2
14:15 6.7 °C 4.8 °C 980.6 hPa SSW 6.4 km/h 19.3 km/h 88 % 0 mm 160 W/m2
14:20 6.6 °C 4.9 °C 980.6 hPa SSE 6.4 km/h 19.3 km/h 89 % 0 mm 109 W/m2
14:30 6.4 °C 4.7 °C 980.2 hPa SE 8 km/h 19.3 km/h 89 % 0 mm 58 W/m2
14:35 6.3 °C 4.8 °C 980.2 hPa South 8 km/h 19.3 km/h 90 % 0 mm 44 W/m2
14:45 6.3 °C 4.9 °C 979.9 hPa SSW 4.8 km/h 19.3 km/h 91 % 0 mm 202 W/m2
14:50 6.2 °C 4.9 °C 979.9 hPa South 4.8 km/h 19.3 km/h 91 % 0 mm 81 W/m2
14:55 6.1 °C 4.8 °C 979.9 hPa SSW 6.4 km/h 19.3 km/h 91 % 0 mm 56 W/m2
15:00 6.1 °C 4.7 °C 979.9 hPa SSW 4.8 km/h 4.8 km/h 91 % 0 mm 53 W/m2
15:05 5.9 °C 4.6 °C 979.9 hPa SSW 1.6 km/h 19.3 km/h 91 % 0 mm 74 W/m2
15:15 5.9 °C 4.7 °C 979.9 hPa SSW 1.6 km/h 19.3 km/h 92 % 0 mm 56 W/m2
15:20 6 °C 4.8 °C 979.9 hPa SSW 1.6 km/h 19.3 km/h 92 % 0 mm 49 W/m2
15:25 6 °C 4.8 °C 979.6 hPa SSW 3.2 km/h 19.3 km/h 92 % 0 mm 42 W/m2
15:30 6 °C 4.8 °C 979.6 hPa SW 4.8 km/h 19.3 km/h 92 % 0 mm 49 W/m2
15:35 5.9 °C 4.7 °C 979.6 hPa SW 6.4 km/h 19.3 km/h 92 % 0 mm 33 W/m2
15:40 5.8 °C 4.5 °C 979.6 hPa SW 9.7 km/h 19.3 km/h 91 % 0 mm 12 W/m2
15:50 5.2 °C 3.6 °C 979.9 hPa West 17.7 km/h 17.7 km/h 89 % 0 mm 23 W/m2
15:55 5 °C 3.5 °C 979.6 hPa West 16.1 km/h 19.3 km/h 90 % 0 mm 32 W/m2
16:05 4.7 °C 3.3 °C 979.6 hPa West 12.9 km/h 19.3 km/h 91 % 0 mm 33 W/m2
16:10 4.6 °C 3.4 °C 979.6 hPa WNW 12.9 km/h 12.9 km/h 92 % 0 mm 46 W/m2
16:15 4.5 °C 3.3 °C 979.6 hPa WSW 9.7 km/h 19.3 km/h 92 % 0 mm 56 W/m2
16:25 4.4 °C 3.3 °C 979.6 hPa WNW 9.7 km/h 19.3 km/h 92 % 0 mm 56 W/m2
16:30 4.4 °C 3.2 °C 979.6 hPa WNW 11.3 km/h 19.3 km/h 92 % 0 mm 53 W/m2
16:35 4.4 °C 3.2 °C 979.6 hPa WNW 9.7 km/h 19.3 km/h 92 % 0 mm 51 W/m2
16:40 4.4 °C 3.2 °C 979.6 hPa WNW 6.4 km/h 6.4 km/h 92 % 0 mm 47 W/m2
16:45 4.4 °C 3.3 °C 979.6 hPa WNW 3.2 km/h 19.3 km/h 93 % 0 mm 32 W/m2
16:55 4.5 °C 3.4 °C 979.9 hPa West 4.8 km/h 9.7 km/h 93 % 0 mm 0 W/m2
17:00 4.3 °C 3.1 °C 979.9 hPa West 11.3 km/h 32.2 km/h 92 % 0 mm 5 W/m2
17:05 3.9 °C 2.6 °C 979.9 hPa WNW 19.3 km/h 32.2 km/h 91 % 0 mm 5 W/m2
17:10 3.7 °C 2.5 °C 979.9 hPa West 19.3 km/h 19.3 km/h 92 % 0 mm 0 W/m2
17:20 3.5 °C 2.5 °C 979.9 hPa West 14.5 km/h 14.5 km/h 93 % 1.02 mm 7 W/m2
17:25 3.3 °C 2.3 °C 979.9 hPa NW 14.5 km/h 19.3 km/h 93 % 1.02 mm 46 W/m2
17:35 3 °C 2 °C 979.9 hPa WNW 12.9 km/h 19.3 km/h 93 % 1.52 mm 23 W/m2
17:40 2.9 °C 1.9 °C 979.9 hPa West 11.3 km/h 19.3 km/h 93 % 1.02 mm 5 W/m2
17:45 2.9 °C 2.1 °C 979.9 hPa WNW 12.9 km/h 19.3 km/h 94 % 0 mm 0 W/m2
17:50 2.9 °C 2.1 °C 979.9 hPa West 9.7 km/h 9.7 km/h 94 % 0 mm 0 W/m2
17:55 2.9 °C 2.1 °C 979.9 hPa West 6.4 km/h 19.3 km/h 94 % 0 mm 0 W/m2
18:05 2.9 °C 2.1 °C 979.9 hPa West 4.8 km/h 6.4 km/h 94 % 0 mm 0 W/m2
18:10 2.9 °C 2.1 °C 979.9 hPa West 3.2 km/h 19.3 km/h 94 % 0 mm 0 W/m2
18:15 2.9 °C 2 °C 979.9 hPa West 3.2 km/h 19.3 km/h 94 % 0 mm 0 W/m2
18:20 2.9 °C 2 °C 979.9 hPa West 3.2 km/h 3.2 km/h 94 % 0 mm 0 W/m2
18:25 2.8 °C 1.9 °C 979.9 hPa West 1.6 km/h 12.9 km/h 94 % 0 mm 0 W/m2
18:30 2.8 °C 1.9 °C 979.9 hPa West 4.8 km/h 19.3 km/h 94 % 0 mm 0 W/m2
18:35 2.7 °C 1.8 °C 979.9 hPa WSW 9.7 km/h 20.9 km/h 94 % 0 mm 0 W/m2
18:40 2.7 °C 1.7 °C 980.2 hPa West 14.5 km/h 19.3 km/h 93 % 0 mm 0 W/m2
18:45 2.7 °C 1.7 °C 979.9 hPa West 14.5 km/h 19.3 km/h 93 % 0 mm 0 W/m2
18:50 2.8 °C 1.8 °C 979.9 hPa West 12.9 km/h 19.3 km/h 93 % 0 mm 0 W/m2
18:55 2.8 °C 1.6 °C 979.9 hPa WSW 12.9 km/h 19.3 km/h 92 % 0 mm 0 W/m2
19:05 2.8 °C 1.6 °C 979.9 hPa WSW 14.5 km/h 19.3 km/h 92 % 0 mm 0 W/m2
19:10 2.8 °C 1.6 °C 979.9 hPa WSW 14.5 km/h 14.5 km/h 92 % 0 mm 0 W/m2
19:15 2.7 °C 1.6 °C 979.9 hPa West 12.9 km/h 17.7 km/h 92 % 0 mm 0 W/m2
19:20 2.7 °C 1.4 °C 979.9 hPa West 14.5 km/h 14.5 km/h 91 % 0 mm 0 W/m2
19:30 2.7 °C 1.3 °C 979.9 hPa West 12.9 km/h 12.9 km/h 91 % 0 mm 0 W/m2
19:35 2.7 °C 1.3 °C 980.2 hPa West 11.3 km/h 19.3 km/h 91 % 0 mm 0 W/m2
19:45 2.6 °C 1.3 °C 980.2 hPa WSW 9.7 km/h 19.3 km/h 91 % 0 mm 0 W/m2
19:50 2.6 °C 1.2 °C 980.2 hPa West 9.7 km/h 19.3 km/h 91 % 0 mm 0 W/m2
19:55 2.6 °C 1.3 °C 980.2 hPa WSW 11.3 km/h 19.3 km/h 91 % 0 mm 0 W/m2
20:00 2.7 °C 1.3 °C 980.2 hPa WSW 12.9 km/h 12.9 km/h 91 % 0 mm 0 W/m2
20:05 2.7 °C 1.4 °C 980.2 hPa WSW 12.9 km/h 19.3 km/h 91 % 0 mm 0 W/m2
20:15 2.8 °C 1.4 °C 980.6 hPa West 12.9 km/h 19.3 km/h 91 % 0 mm 0 W/m2
20:20 2.8 °C 1.4 °C 980.6 hPa West 14.5 km/h 19.3 km/h 91 % 0 mm 0 W/m2
20:25 2.7 °C 1.4 °C 980.6 hPa West 12.9 km/h 19.3 km/h 91 % 0 mm 0 W/m2
20:30 2.8 °C 1.6 °C 980.6 hPa WSW 11.3 km/h 11.3 km/h 92 % 0 mm 0 W/m2
20:35 2.8 °C 1.6 °C 980.6 hPa West 12.9 km/h 14.5 km/h 92 % 0 mm 0 W/m2
20:40 2.8 °C 1.6 °C 980.6 hPa West 17.7 km/h 19.3 km/h 92 % 0 mm 0 W/m2
20:50 2.7 °C 1.3 °C 980.6 hPa West 14.5 km/h 14.5 km/h 91 % 0 mm 0 W/m2
20:55 2.6 °C 1.4 °C 980.6 hPa WSW 11.3 km/h 19.3 km/h 92 % 0 mm 0 W/m2
21:00 2.5 °C 1.3 °C 980.6 hPa West 9.7 km/h 19.3 km/h 92 % 0 mm 0 W/m2
21:05 2.4 °C 1.2 °C 980.6 hPa West 8 km/h 19.3 km/h 92 % 0 mm 0 W/m2
21:10 2.3 °C 1.1 °C 980.6 hPa West 8 km/h 19.3 km/h 92 % 0 mm 0 W/m2
21:20 2.2 °C 1 °C 980.6 hPa WNW 9.7 km/h 19.3 km/h 92 % 0 mm 0 W/m2
21:25 2.1 °C 0.9 °C 980.6 hPa West 11.3 km/h 19.3 km/h 92 % 0 mm 0 W/m2
21:35 2.1 °C 0.9 °C 980.9 hPa WNW 9.7 km/h 19.3 km/h 92 % 0 mm 0 W/m2
21:40 2 °C 0.8 °C 980.9 hPa WNW 9.7 km/h 19.3 km/h 92 % 0 mm 0 W/m2
21:45 1.9 °C 0.8 °C 980.6 hPa West 9.7 km/h 19.3 km/h 92 % 0 mm 0 W/m2
21:55 1.8 °C 0.7 °C 980.6 hPa WNW 6.4 km/h 19.3 km/h 92 % 0 mm 0 W/m2
22:00 1.8 °C 0.6 °C 980.6 hPa West 4.8 km/h 19.3 km/h 92 % 0 mm 0 W/m2
22:05 1.7 °C 0.7 °C 980.6 hPa WNW 6.4 km/h 19.3 km/h 93 % 0 mm 0 W/m2
22:10 1.7 °C 0.7 °C 980.6 hPa West 8 km/h 19.3 km/h 93 % 0 mm 0 W/m2
22:15 1.6 °C 0.6 °C 980.6 hPa WNW 8 km/h 19.3 km/h 93 % 0 mm 0 W/m2
22:20 1.6 °C 0.6 °C 980.6 hPa WNW 8 km/h 8 km/h 93 % 0 mm 0 W/m2
22:30 1.6 °C 0.6 °C 980.9 hPa West 6.4 km/h 6.4 km/h 93 % 0 mm 0 W/m2
22:35 1.5 °C 0.5 °C 980.9 hPa West 4.8 km/h 9.7 km/h 93 % 0 mm 0 W/m2
22:40 1.4 °C 0.4 °C 980.6 hPa West 6.4 km/h 19.3 km/h 93 % 0 mm 0 W/m2
22:45 1.4 °C 0.4 °C 980.6 hPa West 6.4 km/h 19.3 km/h 93 % 0 mm 0 W/m2
22:50 1.4 °C 0.4 °C 980.6 hPa West 4.8 km/h 4.8 km/h 93 % 0 mm 0 W/m2
23:00 1.2 °C 0.1 °C 980.6 hPa West 1.6 km/h 19.3 km/h 92 % 0 mm 0 W/m2
23:05 1.1 °C 0.1 °C 980.6 hPa West 1.6 km/h 19.3 km/h 93 % 0 mm 0 W/m2
23:10 1.1 °C 0.1 °C 980.6 hPa West 3.2 km/h 3.2 km/h 93 % 0 mm 0 W/m2
23:15 1 °C 0 °C 980.6 hPa West 3.2 km/h 19.3 km/h 93 % 0 mm 0 W/m2
23:20 1 °C 0 °C 980.6 hPa West 1.6 km/h 19.3 km/h 93 % 0 mm 0 W/m2
23:25 1 °C 0 °C 980.6 hPa West 3.2 km/h 19.3 km/h 93 % 0 mm 0 W/m2
23:35 0.9 °C -0.1 °C 980.9 hPa Calm   19.3 km/h 93 % 0 mm 0 W/m2
23:40 0.8 °C -0.2 °C 980.9 hPa West 1.6 km/h 19.3 km/h 93 % 0 mm 0 W/m2
23:50 0.8 °C -0.1 °C 980.9 hPa West 3.2 km/h 3.2 km/h 94 % 0 mm 0 W/m2
23:55 0.8 °C 0 °C 980.9 hPa West 3.2 km/h 19.3 km/h 94 % 0 mm 0 W/m2
Delerius-Weather
Compliments of Weather Underground - 2 mb

Data updates at regular intervals.